www.pogodaiklimat.ru

Погода и климат >> Архив погоды >> Россия >> Краснодарский край >> Красная Поляна


АРХИВ ПОГОДЫ в Красной Поляне

Время (UTC), дата Ветер
(напр.,м/с)
 
Видим.   Явления Облачность Т
(С)
Тd
(С)
f
(%)
Тe
(С)
Тes
(С)
Комфортность P
(гПа)
Po
(гПа)
Тmin
(С)
Tmax
(С)
R
(мм)
R24
(мм)
S
(см)
00 9.06 СВ 1 20 км ясно +16.4 +12.0 75 +17 +17 1018.7 953.6
03 9.06 СВ 1 20 км ясно +16.0 +11.8 76 +17 +18 1018.5 953.3 +15.0
06 9.06 Ю 1 20 км ясно +23.1 +13.6 55 +26 +39 жарко 1015.9 952.4
09 9.06 ЮЗ 4 20 км 1/1 1500 м
[Cu hum]
+27.3 +16.3 51 +31 +42 душно 1014.1 951.7
12 9.06 ЮЗ 3 20 км 3/3 1000 м
[Cu med, cong]
+29.0 +16.6 47 +32 +40 душно 1012.5 950.5
15 9.06 З 1 20 км 1/1 1500 м
[Cu hum]
+27.4 +17.6 55 +32 +34 очень
душно
1011.7 949.5 +29.3
18 9.06 С 2 20 км 10/0
[Ci fib]
+23.0 +17.0 69 +28 +28 душно 1013.6 950.4
21 9.06 С 1 20 км 3/0
[Ci sp]
+20.5 +16.1 76 +25 +25 комфорт 1014.2 950.4
00 10.06 С 1 20 км ясно +17.6 +14.3 81 +19 +19 1014.8 950.3
03 10.06 С 2 20 км ясно +17.2 +12.1 72 +18 +19 1015.0 950.3 +16.2
06 10.06 ЮЗ 1 20 км ясно +24.4 +12.4 47 +26 +39 жарко 1012.4 949.4
09 10.06 ЮЗ 3 20 км 3/0
[Ci]
+29.3 +16.8 47 +33 +48 душно 1009.8 948.1
12 10.06 З 3 20 км 4/4 1500 м
[Cu med, cong]
+30.1 +17.6 47 +34 +41 очень
душно
1008.9 947.4
15 10.06 штиль 0 20 км 3/3 1500 м
[Cu med, cong Cs]
+28.1 +17.6 53 +32 +35 душно 1008.7 946.8 +30.7
18 10.06 С 2 20 км в посл. час гроза {ливн. осадки} 8/8 1500 м
[Cb calv Cs]
+19.6 +19.3 98 +23 +23 комфорт 1011.8 948.0
21 10.06 СВ 2 20 км 4/0
[Cs]
+19.1 +18.6 97 +22 +22 комфорт 1010.9 947.1
00 11.06 СВ 1 20 км 10/0
[Ac As]
+18.1 +16.4 90 +19 +19 1011.5 947.4
03 11.06 С 3 20 км 8/0
[Ac lent Ci]
+19.2 +14.7 75 +21 +21 комфорт 1010.6 946.7 +17.2 6
06 11.06 ЮЗ 2 20 км 8/3 1500 м
[Cu Sc Ac cast]
+24.1 +16.4 62 +28 +31 душно 1008.7 946.0
09 11.06 СВ 2 20 км 10/10 1500 м
[Sc]
+23.1 +16.2 65 +28 +28 душно 1010.2 947.2
12 11.06 В 2 20 км {ливн. осадки} 6/3 1500 м
[Sc Ac cast Cc]
+25.9 +16.5 56 +29 +37 душно 1007.8 945.5
15 11.06 С 3 20 км ясно +26.7 +15.7 51 +30 +32 душно 1004.9 942.9 +29.2 0.0
18 11.06 С 1 20 км 4/0
[Ac As]
+21.6 +13.8 61 +24 +24 комфорт 1008.2 944.9
21 11.06 В 1 20 км 3/0
[Ac As]
+19.8 +14.4 71 +23 +23 комфорт 1009.0 945.3
00 12.06 С 1 20 км 3/0
[Ac cast]
+19.5 +14.1 71 +22 +22 комфорт 1007.9 944.2
03 12.06 С 1 20 км 10/8 1500 м
[Sc Ac As]
+18.5 +14.6 78 +20 +20 1008.4 944.5 +17.9
06 12.06 ЮВ 1 20 км 8/4 1500 м
[Sc Ac lent]
+22.3 +15.4 65 +26 +30 жарко 1007.7 944.6
09 12.06 ЮЗ 3 20 км 4/3 1500 м
[Cu hum Ci fib]
+28.0 +16.0 48 +31 +42 душно 1006.2 944.4
12 12.06 ЮЗ 3 20 км 8/6 1000 м
[Cb calv Ci fib]
+27.9 +16.8 51 +32 +36 душно 1005.6 943.8
15 12.06 СВ 1 20 км в посл. час гроза {ливн. осадки} 8/4 1000 м
[Cb calv Ci fib]
+19.5 +18.3 93 +23 +25 комфорт 1008.3 944.7 +29.4 1
18 12.06 СВ 1 20 км {гроза, ливн. осадки} 10/0
[Ci fib]
+17.2 +16.9 98 +18 +18 1010.6 946.3
21 12.06 В 1 20 км 6/4 1000 м
[Sc Ac lent]
+16.1 +15.6 97 +17 +17 1011.4 946.8
00 13.06 ЮВ 2 20 км 8/6 1000 м
[Sc Ac lent]
+15.6 +15.3 98 +15 +15 1011.3 946.6
03 13.06 штиль 0 20 км 10/4 1000 м
[Sc Ac As]
+16.0 +15.7 98 +16 +16 1011.1 946.5 +15.3
06 13.06 Ю 1 20 км 10/1 300 м
[St Ac As Cs]
+20.3 +15.7 75 +24 +30 комфорт 1010.6 947.0
09 13.06 ЮЗ 1 20 км 10/10 600 м
[Sc]
+22.1 +17.9 77 +27 +27 душно 1010.1 946.9
12 13.06 З 1 20 км 9/3 600 м
[Cu Sc Ac trans]
+25.7 +14.8 51 +28 +34 жарко 1008.6 946.2
15 13.06 З 1 15 км слаб. ливневой дождь 10/9 600 м
[Cb cap Ac As]
+24.0 +17.5 67 +28 +28 душно 1008.5 945.8 +27.0 0.0
18 13.06 З 1 20 км 1/0
[Ac cast]
+19.4 +17.5 89 +23 +23 комфорт 1011.0 947.2
21 13.06 С 1 19 км {ливн. осадки} 3/0
[Ac cast]
+17.5 +15.5 88 +19 +19 1012.7 948.3
00 14.06 штиль 0 20 км ясно +16.3 +14.5 89 +16 +16 1012.5 947.9
03 14.06 В 1 20 км 1/0
[Ci fib]
+16.6 +14.3 86 +17 +19 1012.8 948.2 +15.0
06 14.06 ЮЗ 1 20 км ясно +22.6 +14.7 61 +26 +39 жарко 1011.4 948.2
09 14.06 З 2 20 км слаб. ливневой дождь 4/4 600 м
[Cb calv]
+24.4 +16.7 62 +28 +40 душно 1010.7 947.9
12 14.06 СЗ 1 20 км в посл. час ливневой дождь 8/8 600 м
[Cb cap]
+23.2 +22.9 98 +32 +35 очень
душно
1010.1 947.3
15 14.06 СВ 2
{10}
20 км {гроза, ливн. осадки} 9/4 1500 м
[Cu hum Ac cast Ci]
+20.8 +17.6 82 +25 +26 комфорт 1011.8 948.2 +26.7 18
18 14.06 С 1 20 км {гроза, ливн. осадки} 10/3 1500 м
[Sc Ac As]
+18.4 +17.6 95 +20 +20 1012.8 948.7
21 14.06 СВ 2 20 км 6/0
[Ac lent Cs]
+16.6 +16.4 99 +17 +17 1014.0 949.4
00 15.06 С 2 20 км 10/0
[Ac As]
+16.8 +15.0 89 +17 +17 1012.6 948.1
03 15.06 В 1 20 км 9/0
[Ac cuf Ci sp]
+16.1 +14.8 92 +17 +18 1012.4 947.7 +15.6
06 15.06 Ю 1 20 км 3/1 1500 м
[Cu hum Cc]
+23.2 +16.3 65 +28 +39 душно 1009.9 946.9
09 15.06 ЮЗ 3 20 км 4/3 1500 м
[Cu med, cong Ac cast]
+28.9 +15.4 44 +32 +42 душно 1008.1 946.3
12 15.06 З 2 20 км 9/9 1500 м
[Cu Sc]
+28.4 +18.5 55 +33 +35 очень
душно
1006.8 945.1
15 15.06 СВ 2 20 км {гроза, ливн. осадки} 9/8 1500 м
[Sc Ci fib]
+20.3 +16.5 79 +24 +24 комфорт 1010.1 946.5 +30.0 0.8
18 15.06 СВ 1 20 км {гроза, ливн. осадки} 10/0
[Cs]
+19.2 +14.7 75 +22 +22 комфорт 1010.1 946.2

 

Местоположение метеостанции Красная Поляна (Краснодарский край, Россия): широта 43.68 долгота 40.20 высота над уровнем моря 567 м.

В архиве по умолчанию представлена погода в Красной Поляне за последнюю неделю. Архивные данные за месяц целиком и за предыдущие месяцы, начиная с января 2011 года, Вы можете получить, выбрав интересующий диапазон дат из раскрывающегося списка и нажав кнопку "Ввод!".


*Определитесь, кто Вы:
робот инопланетянин человек

Внимание! Время в таблицах - всемирное. Для получения местного времени необходимо прибавить поправку, которая равна 3 ч.

Смотрите также архив погоды в соседних городах и на ближайших метеорологических станциях:

Погода в Горная Карусель 1500 (Краснодарский край, Россия) (8 км)
Погода в Горная Карусель 1000 (Краснодарский край, Россия) (8 км)
Погода на Кордоне Лаура (Краснодарский край, Россия) (8 км)
Погода в Кепше (Краснодарский край, Россия) (14 км)
Погода в Гузерипле (Адыгея, Россия) (36 км)
Погода в Сочи (Краснодарский край, Россия) (36 км)
Погода в Сочи аэропорт (Адлере) (Краснодарский край, Россия) (37 км)
Погода в Имеретинке (Краснодарский край, Россия) (37 км)
Погода в Солох Ауле (Краснодарский край, Россия) (48 км)
Погода в Кичмае (Краснодарский край, Россия) (58 км)

Пояснения к столбцам:

Ветер - указаны скорость ветра в м/с - средняя за 10 мин, порывы в срок и между сроками (в фигурных скобках) и направление, откуда дует ветер: С - северный, СВ - северо-восточный, В - восточный, ЮВ - юго-восточный, Ю - южный, ЮЗ - юго-западный, З - западный, СЗ - северо-западный.
Видимость - горизонтальная дальность видимости в метрах или километрах. При видимости от 1 до 10 км при отсутствии осадков обычно наблюдается дымка, при ухудшении видимости до 1 км и менее - туман. В сухую погоду видимость может ухудшаться дымом, пылью или мглою.
Явления - указаны атмосферные явления, наблюдавшиеся в срок или в последний час перед сроком; фигурными скобками обозначены явления, наблюдавшиеся между сроками (за 1-3 часа до срока); квадратными скобками обозначены град или гололедные отложения с указанием их диаметра в мм.
Облачность - указаны через наклонную черту общая и нижняя облачность в баллах и высота нижней границы облаков в метрах; квадратными скобками обозначены формы облаков: Ci - перистые, Cs - перисто-слоистые, Cc - перисто-кучевые, Ac - высококучевые, As - высокослоистые, Sc - слоисто-кучевые, Ns - слоисто-дождевые, Cu - кучевые, Cb - кучево-дождевые. Подробнее классификацию облаков см. в Атласе облаков (PDF).
T - Температура воздуха - температура, измеренная на высоте 2 м над землей.
Td - Температура точки росы - температура, при понижении до которой содержащийся в воздухе водяной пар достигнет насыщения.
f - Относительная влажность воздуха - влажноcть воздуха, измеренная на высоте 2 м над землей.
Te - Эффективная температура - температура, которую ощущает одетый по сезону человек в тени. Характеристика душности погоды. При расчете учитывается влияние влажности воздуха и скорости ветра на теплоощущения человека.
Tes - Эффективная температура на солнце - температура, которую ощущает человек, с поправкой на солнечный нагрев. Характеристика знойности погоды. Зависит от высоты солнца над горизонтом, облачности и скорости ветра. Ночью, в пасмурную погоду, а также при ветре 12 м/с и более поправка равна нулю.
P - Атмосферное давление - приведенное к уровню моря атмосферное давление.
Po - Атмосферное давление - измеренное на уровне метеостанции атмосферное давление.
Tmin - Минимальная температура - минимум температуры воздуха на высоте 2 м над землей.
Tmax - Максимальная температура - максимум температуры воздуха на высоте 2 м над землей.
R - Количество осадков - Количество выпавших осадков за период времени, мм. При наведении курсора мыши на число - период времени, за который выпало указанное количество осадков.
R24 - Количество осадков - Количество выпавших осадков за 24 часа, мм.
S - Снежный покров - Высота снежного покрова, см. При наведении курсора мыши на число - состояние снежного покрова и степень покрытия местности в баллах.